Content
SEND FEEDBACK

Daily
Averages
Monthly
Summary
United States of America

COLTON, SOUTH DAKOTA


Home > North America > United States > South Dakota
Elevation: 1620 feet     Latitude: 43 47N     Longitude: 096 55W

WEATHER
 
SELECT A DAY
Number of Records: 202,850;   Date Range: 1/1/95 - 7/20/14
 
SHARE

PRINT THIS DATA

[ ← Previous Day ]
WEATHER ALMANAC - FEBRUARY 5, 2013
[ Next Day → ]
[ °C ]   °F
Weather ElementAverageHighLow
Temperature30.6 °F37.9 °F (12:56 pm)21.9 °F (11:56 pm)
Dewpoint25.1 °F28.9 °F (12:56 pm)19.9 °F (11:56 pm)
Humidity80.3 %92 % (11:56 pm)70 % (10:56 am)
Barometer29.96 in30.09 in (9:56 pm)29.76 in (3:56 am)
Wind Speed10.1 mph20.7 mph (10:56 am)
Wind Gust26.5 mph (10:56 am)
Weather ElementAverage
Visibility10 mi
Wind DirectionW (267.1 °)

Weather ElementTotal
Precipitation---
Heating Degree Days35.1 (Base 65)
Averaged from 24 records on February 5, 2013
WEATHER CONDITIONS BREAKOUT
WIND DIRECTION BREAKOUT
WEATHER BY HOUR - FEBRUARY 5, 2013
[ °C ]   °F
Local TimeTemperatureDewpointHumidityBarometerVisibilityWind DirectionWind SpeedGust SpeedPrecipitationEventsConditions
1:56 AM25.0 °F21.0 °F85 %29.78 in10.0 miWSW (240°)5.8 mphClear
2:56 AM26.1 °F21.9 °F84 %29.77 in10.0 miSW (230°)4.6 mphMostly Cloudy
3:56 AM27.0 °F23.0 °F85 %29.76 in10.0 miWest (260°)4.6 mphMostly Cloudy
4:56 AM28.0 °F23.0 °F81 %29.77 in10.0 miWest (280°)9.2 mphClear
5:56 AM30.0 °F25.0 °F82 %29.79 in10.0 miWNW (290°)10.4 mphClear
6:56 AM30.0 °F25.0 °F82 %29.82 in10.0 miWNW (300°)16.1 mph21.9 mphClear
7:56 AM28.9 °F25.0 °F85 %29.86 in10.0 miNW (310°)13.8 mphPartly Cloudy
8:56 AM32.0 °F27.0 °F82 %29.91 in10.0 miNW (320°)15.0 mphClear
9:56 AM34.0 °F27.0 °F75 %29.94 in10.0 miNW (320°)19.6 mphPartly Cloudy
10:56 AM36.0 °F27.0 °F70 %29.97 in10.0 miNW (310°)20.7 mph26.5 mphPartly Cloudy
11:56 AM37.0 °F28.0 °F70 %30.00 in10.0 miNW (310°)16.1 mph23.0 mphPartly Cloudy
12:56 PM37.9 °F28.9 °F70 %30.00 in10.0 miWNW (300°)17.3 mph24.2 mphScattered Clouds
1:14 PM37.4 °F28.4 °F70 %29.96 in10.0 miNNW (330°)17.3 mphMostly Cloudy
1:56 PM35.1 °F28.0 °F76 %30.03 in10.0 miNW (320°)16.1 mph23.0 mphOvercast
2:56 PM34.0 °F27.0 °F75 %30.04 in10.0 miNNW (340°)10.4 mphOvercast
3:56 PM34.0 °F26.1 °F73 %30.04 in10.0 miNW (320°)10.4 mphMostly Cloudy
4:56 PM33.1 °F26.1 °F75 %30.04 in10.0 miNNW (330°)8.1 mphMostly Cloudy
5:56 PM30.9 °F25.0 °F79 %30.06 in10.0 miNW (310°)4.6 mphMostly Cloudy
6:56 PM30.0 °F26.1 °F85 %30.07 in10.0 miNorth (350°)4.6 mphMostly Cloudy
7:56 PM30.2 °F26.6 °F86 %30.02 in10.0 miNorth (350°)5.8 mphOvercast
8:56 PM26.1 °F23.0 °F88 %30.08 in10.0 miSouth (190°)5.8 mphScattered Clouds
9:56 PM26.1 °F23.0 °F88 %30.09 in10.0 miCalmClear
10:56 PM24.1 °F21.0 °F88 %30.08 in10.0 miCalmClear
11:56 PM21.9 °F19.9 °F92 %30.05 in10.0 miEast (100°)5.8 mphClear
Hourly data recorded from KFSD, located miles away from Colton, South Dakota







STORIES FROM OUR PARTNERS